Wichita, KS

9:11 PM CST on February 05, 2016 (GMT -0600)
Wichita Eisenhower National Airport

Weather History for KICT - June, 2012

Change the Weather History Date:

Wednesday, June 27, 2012

  Actual Average Record
Temperature  
Mean Temperature 90 °F 79 °F  
Max Temperature 106 °F 90 °F 109 °F (1980)
Min Temperature 73 °F 68 °F 46 °F (1968)
Degree Days  
Heating Degree Days 0 0  
Month to date heating degree days 10 3  
Since 1 June heating degree days 10 3  
Since 1 July heating degree days 3627 4591  
Cooling Degree Days 25 14  
Month to date cooling degree days 391 285  
Year to date cooling degree days 752 421  
Since 1 June cooling degree days 391 285  
Growing Degree Days 40 (Base 50)    
Moisture  
Dew Point 66 °F    
Average Humidity 51    
Maximum Humidity 74    
Minimum Humidity 27    
Precipitation  
Precipitation 0.00 in 0.16 in 2.35 in (1948)
Month to date precipitation 2.55 4.78  
Year to date precipitation 17.52 16.64  
Snow  
Snow 0.00 in 0.00 in 0.00 in (2007)
Month to date snowfall 0.0 0.0  
Since 1 June snowfall 0.0 0.0  
Since 1 July snowfall 3.0 14.9  
Snow Depth 0.00 in    
Sea Level Pressure  
Sea Level Pressure 29.79 in    
Wind  
Wind Speed 16 mph (South)    
Max Wind Speed 26 mph    
Max Gust Speed 31 mph    
Visibility 10 miles    
Events      
T = Trace of Precipitation, MM = Missing Value Source: NWS Daily Summary

Daily Weather History Graph

Daily Weather History Graph

Search for Another Location

Airport or City:

Trip Planner

Search our weather history database for the weather conditions in past years. The results will help you decide how hot, cold, wet, or windy it might be!

Date:

Astronomy

Jun. 27, 2012 Rise Set
Actual Time 6:10 AM CDT 8:55 PM CDT
Civil Twilight 5:39 AM CDT 9:26 PM CDT
Nautical Twilight 5:00 AM CDT 10:05 PM CDT
Astronomical Twilight 4:16 AM CDT 10:49 PM CDT
Moon 2:25 PM CDT (6/27) 1:04 AM CDT (6/27)
Length of Visible Light 15h 47m
Length of Day
14h 44m
First Quarter, 56% of the Moon is Illuminated
Jun 27
First Quarter
Jul 3
Full
Jul 10
Last Quarter
Jul 18
New
Jul 26
First Quarter

Hourly Weather History & Observations

Time (CDT) Temp. Heat Index Dew Point Humidity Pressure Visibility Wind Dir Wind Speed Gust Speed Precip Events Conditions
12:53 AM 82.9 °F 84.4 °F 64.0 °F 53% 29.74 in 10.0 mi South 9.2 mph - N/A   Clear
1:53 AM 79.0 °F - 66.0 °F 64% 29.74 in 10.0 mi South 8.1 mph - N/A   Clear
2:53 AM 79.0 °F - 66.0 °F 64% 29.74 in 10.0 mi South 9.2 mph - N/A   Clear
3:53 AM 79.0 °F - 66.0 °F 64% 29.74 in 10.0 mi South 10.4 mph - N/A   Clear
4:53 AM 75.9 °F - 66.0 °F 71% 29.76 in 10.0 mi South 8.1 mph - N/A   Clear
5:53 AM 75.0 °F - 66.9 °F 76% 29.77 in 10.0 mi South 8.1 mph - N/A   Clear
6:53 AM 77.0 °F - 68.0 °F 74% 29.80 in 10.0 mi South 11.5 mph - N/A   Clear
7:53 AM 81.0 °F 83.8 °F 68.0 °F 65% 29.81 in 10.0 mi South 12.7 mph - N/A   Clear
8:53 AM 86.0 °F 89.4 °F 68.0 °F 55% 29.83 in 10.0 mi South 16.1 mph - N/A   Clear
9:53 AM 89.1 °F 93.7 °F 69.1 °F 52% 29.83 in 10.0 mi SSW 19.6 mph 28.8 mph N/A   Clear
10:53 AM 93.0 °F 97.9 °F 69.1 °F 45% 29.83 in 10.0 mi SSW 23.0 mph 31.1 mph N/A   Clear
11:53 AM 97.0 °F 102.8 °F 69.1 °F 40% 29.83 in 10.0 mi SSW 18.4 mph 27.6 mph N/A   Clear
12:53 PM 99.0 °F 104.2 °F 68.0 °F 36% 29.82 in 10.0 mi SW 19.6 mph 27.6 mph N/A   Clear
1:53 PM 102.0 °F 108.8 °F 69.1 °F 34% 29.81 in 10.0 mi South 19.6 mph 27.6 mph N/A   Clear
2:53 PM 105.1 °F 111.8 °F 68.0 °F 30% 29.80 in 10.0 mi SSW 16.1 mph 26.5 mph N/A   Clear
3:53 PM 105.1 °F 108.5 °F 64.0 °F 26% 29.78 in 10.0 mi South 19.6 mph 27.6 mph N/A   Clear
4:53 PM 106.0 °F 110.1 °F 64.0 °F 26% 29.78 in 10.0 mi South 16.1 mph 27.6 mph N/A   Clear
5:53 PM 105.1 °F 108.5 °F 64.0 °F 26% 29.77 in 10.0 mi South 18.4 mph 24.2 mph N/A   Clear
6:53 PM 102.9 °F 105.5 °F 63.0 °F 27% 29.77 in 10.0 mi South 21.9 mph - N/A   Clear
7:53 PM 99.0 °F 102.3 °F 64.9 °F 33% 29.78 in 10.0 mi South 19.6 mph 27.6 mph N/A   Clear
8:53 PM 93.9 °F 96.1 °F 64.9 °F 38% 29.79 in 10.0 mi South 17.3 mph - N/A   Clear
9:53 PM 91.0 °F 94.3 °F 66.9 °F 45% 29.82 in 10.0 mi South 16.1 mph - N/A   Clear
10:53 PM 89.1 °F 91.0 °F 64.9 °F 45% 29.84 in 10.0 mi South 15.0 mph - N/A   Clear
11:53 PM 86.0 °F 88.2 °F 66.0 °F 51% 29.85 in 10.0 mi South 18.4 mph - N/A   Clear